Weather History for Falfurrias, TX

Change the Weather History Date:

Monday, February 18, 2013

  Actual Average (KNQI) Record (KNQI)
Temperature  
Mean Temperature 80 °F -  
Max Temperature 90 °F 71 °F 86 °F (2014)
Min Temperature 68 °F 51 °F 64 °F (2014)
Cooling Degree Days 14    
Growing Degree Days 30 (Base 50)    
Moisture  
Dew Point 60 °F    
Average Humidity 61    
Maximum Humidity 84    
Minimum Humidity 24    
Precipitation  
Precipitation 0.00 in - - ()
Sea Level Pressure  
Sea Level Pressure 29.92 in    
Wind  
Wind Speed 12 mph (South)    
Max Wind Speed 24 mph    
Max Gust Speed 32 mph    
Visibility 10 miles    
Events      
Averages and records for this station are not official NWS values.
T = Trace of Precipitation, MM = Missing Value Source: NWS Daily Summary

Daily Weather History Graph

Daily Weather History Graph

Search for Another Location

Airport:

Trip Planner

Search our weather history database for the weather conditions in past years. The results will help you decide how hot, cold, wet, or windy it might be!

Date:

Astronomy

Feb. 18, 2013 Rise Set
Actual Time 7:06 AM CST 6:26 PM CST
Civil Twilight 6:42 AM CST 6:50 PM CST
Nautical Twilight 6:15 AM CST 7:17 PM CST
Astronomical Twilight 5:48 AM CST 7:44 PM CST
Moon 12:28 PM CST (2/18) 1:33 AM CST (2/18)
Length of Visible Light 12h 07m
Length of Day
11h 20m
First Quarter, 58% of the Moon is Illuminated
Feb 18
First Quarter
Feb 25
Full
Mar 4
Last Quarter
Mar 11
New
Mar 19
First Quarter

Hourly Weather History & Observations

Time (CST) Temp. Heat Index Dew Point Humidity Pressure Visibility Wind Dir Wind Speed Gust Speed Precip Events Conditions
12:15 AM 70.0 °F - 59.0 °F 68% 29.99 in 10.0 mi SSE 13.8 mph - N/A   Overcast
12:35 AM 70.2 °F - 59.0 °F 68% 29.99 in 10.0 mi SSE 16.1 mph 19.6 mph N/A   Overcast
12:55 AM 70.3 °F - 59.4 °F 68% 29.99 in 7.0 mi SSE 15.0 mph - N/A   Overcast
1:15 AM 70.3 °F - 59.5 °F 69% 29.98 in 10.0 mi SSE 12.7 mph - N/A   Overcast
1:35 AM 70.2 °F - 59.9 °F 70% 29.98 in 10.0 mi SSE 11.5 mph - N/A   Overcast
1:55 AM 70.3 °F - 60.1 °F 70% 29.98 in 10.0 mi SSE 11.5 mph - N/A   Overcast
2:15 AM 70.5 °F - 60.6 °F 71% 29.97 in 10.0 mi SSE 16.1 mph 20.7 mph N/A   Overcast
2:35 AM 70.7 °F - 61.2 °F 72% 29.96 in 10.0 mi SSE 11.5 mph - N/A   Overcast
2:55 AM 70.7 °F - 61.5 °F 73% 29.95 in 10.0 mi SSE 17.3 mph 20.7 mph N/A   Overcast
3:15 AM 70.3 °F - 61.7 °F 74% 29.93 in 10.0 mi SSE 13.8 mph 19.6 mph N/A   Overcast
3:35 AM 70.2 °F - 61.7 °F 74% 29.93 in 10.0 mi SSE 13.8 mph 17.3 mph N/A   Overcast
4:15 AM 70.0 °F - 61.9 °F 75% 29.91 in 10.0 mi SSE 11.5 mph - N/A   Overcast
4:35 AM 69.8 °F - 61.7 °F 75% 29.91 in 10.0 mi SSE 10.4 mph - N/A   Overcast
4:55 AM 70.0 °F - 61.9 °F 75% 29.90 in 10.0 mi SSE 11.5 mph - N/A   Overcast
5:15 AM 70.2 °F - 62.1 °F 75% 29.90 in 10.0 mi SSE 9.2 mph - N/A   Overcast
5:35 AM 70.7 °F - 62.6 °F 75% 29.90 in 10.0 mi SSE 9.2 mph - N/A   Overcast
5:55 AM 70.7 °F - 62.8 °F 76% 29.90 in 10.0 mi SSE 10.4 mph 18.4 mph N/A   Overcast
6:15 AM 71.1 °F - 63.5 °F 77% 29.89 in 10.0 mi SSE 11.5 mph - N/A   Overcast
6:35 AM 71.1 °F - 63.7 °F 77% 29.89 in 10.0 mi SSE 13.8 mph 18.4 mph N/A   Overcast
6:55 AM 70.9 °F - 64.0 °F 79% 29.90 in 10.0 mi SSE 12.7 mph - N/A   Overcast
7:15 AM 70.9 °F - 64.0 °F 79% 29.91 in 10.0 mi South 11.5 mph - N/A   Overcast
7:35 AM 71.1 °F - 64.4 °F 79% 29.91 in 10.0 mi South 10.4 mph - N/A   Overcast
7:55 AM 71.2 °F - 64.4 °F 79% 29.91 in 10.0 mi SSE 11.5 mph - N/A   Overcast
8:15 AM 71.6 °F - 64.8 °F 79% 29.91 in 10.0 mi SSE 10.4 mph - N/A   Overcast
8:35 AM 72.1 °F - 64.9 °F 78% 29.92 in 10.0 mi South 13.8 mph 17.3 mph N/A   Overcast
8:55 AM 72.5 °F - 65.3 °F 78% 29.93 in 10.0 mi South 15.0 mph - N/A   Overcast
9:15 AM 73.4 °F - 65.7 °F 77% 29.93 in 10.0 mi South 13.8 mph 17.3 mph N/A   Overcast
9:35 AM 73.9 °F - 65.5 °F 75% 29.94 in 10.0 mi South 20.7 mph 26.5 mph N/A   Overcast
9:55 AM 74.7 °F - 65.7 °F 73% 29.93 in 10.0 mi South 19.6 mph 25.3 mph N/A   Overcast
10:15 AM 76.1 °F - 65.5 °F 70% 29.93 in 7.0 mi South 18.4 mph 24.2 mph N/A   Overcast
10:35 AM 77.4 °F - 65.1 °F 66% 29.92 in 10.0 mi South 20.7 mph 28.8 mph N/A   Overcast
10:55 AM 78.1 °F - 64.6 °F 63% 29.92 in 10.0 mi South 24.2 mph 32.2 mph N/A   Overcast
11:15 AM 79.7 °F - 64.6 °F 60% 29.92 in 10.0 mi South 21.9 mph 32.2 mph N/A   Mostly Cloudy
11:35 AM 80.4 °F 82.1 °F 64.4 °F 58% 29.92 in 10.0 mi South 23.0 mph 29.9 mph N/A   Overcast
11:55 AM 81.7 °F 83.0 °F 63.3 °F 54% 29.92 in 10.0 mi South 23.0 mph 27.6 mph N/A   Overcast
12:15 PM 82.6 °F 83.8 °F 63.1 °F 52% 29.92 in 10.0 mi South 15.0 mph 25.3 mph N/A   Mostly Cloudy
12:35 PM 83.7 °F 84.5 °F 62.8 °F 49% 29.91 in 10.0 mi South 17.3 mph 23.0 mph N/A   Mostly Cloudy
12:55 PM 84.7 °F 85.2 °F 62.1 °F 46% 29.90 in 10.0 mi South 13.8 mph 23.0 mph N/A   Scattered Clouds
1:15 PM 85.8 °F 86.3 °F 62.1 °F 45% 29.89 in 10.0 mi SSW 12.7 mph 23.0 mph N/A   Scattered Clouds
1:35 PM 85.6 °F 85.9 °F 61.7 °F 44% 29.88 in 10.0 mi South 11.5 mph 20.7 mph N/A   Clear
1:55 PM 87.1 °F 87.0 °F 60.8 °F 41% 29.87 in 10.0 mi SSW 11.5 mph 16.1 mph N/A   Scattered Clouds
2:15 PM 87.3 °F 86.5 °F 58.6 °F 38% 29.86 in 10.0 mi SSW 9.2 mph 17.3 mph N/A   Scattered Clouds
2:35 PM 88.9 °F 88.0 °F 58.8 °F 36% 29.85 in 10.0 mi SSW 12.7 mph - N/A   Clear
2:55 PM 87.8 °F 86.7 °F 57.4 °F 36% 29.83 in 10.0 mi SSE 3.5 mph - N/A   Scattered Clouds
3:35 PM 88.9 °F 86.7 °F 53.4 °F 30% 29.83 in 10.0 mi West 4.6 mph - N/A   Scattered Clouds
3:55 PM 90.3 °F - 52.9 °F 28% 29.82 in 10.0 mi NW 4.6 mph - N/A   Scattered Clouds
4:15 PM 90.5 °F - 50.5 °F 25% 29.82 in 10.0 mi WSW 9.2 mph - N/A   Scattered Clouds
4:35 PM 90.5 °F - 50.2 °F 25% 29.83 in 10.0 mi NNW 9.2 mph - N/A   Clear
5:15 PM 90.0 °F - 48.6 °F 24% 29.83 in 10.0 mi NNW 8.1 mph - N/A   Clear
5:35 PM 89.1 °F - 49.3 °F 25% 29.84 in 10.0 mi NNW 3.5 mph - N/A   Clear
5:55 PM 88.9 °F - 49.6 °F 26% 29.84 in 10.0 mi Calm Calm - N/A   Clear
6:15 PM 88.0 °F - 50.0 °F 27% 29.85 in 10.0 mi Calm Calm - N/A   Clear
6:55 PM 84.9 °F - 45.3 °F 25% 29.86 in 10.0 mi NNW 4.6 mph - N/A   Clear
7:15 PM 82.6 °F - 45.5 °F 27% 29.88 in 10.0 mi NNW 4.6 mph - N/A   Clear
7:35 PM 79.0 °F - 46.6 °F 32% 29.89 in 10.0 mi ESE 8.1 mph - N/A   Scattered Clouds
8:15 PM 79.0 °F - 63.1 °F 58% 29.92 in 10.0 mi SE 6.9 mph - N/A   Clear
8:35 PM 77.9 °F - 63.1 °F 60% 29.94 in 10.0 mi SE 8.1 mph - N/A   Clear
8:55 PM 75.9 °F - 63.0 °F 64% 29.95 in 10.0 mi South 6.9 mph - N/A   Clear
9:15 PM 76.1 °F - 63.5 °F 65% 29.96 in 10.0 mi SSW 5.8 mph - N/A   Clear
9:35 PM 74.5 °F - 63.7 °F 69% 29.98 in 10.0 mi South 10.4 mph - N/A   Clear
9:55 PM 74.5 °F - 64.6 °F 71% 29.98 in 10.0 mi South 6.9 mph - N/A   Clear
10:15 PM 73.0 °F - 64.4 °F 74% 29.99 in 10.0 mi South 4.6 mph - N/A   Scattered Clouds
10:35 PM 71.6 °F - 64.0 °F 77% 30.00 in 10.0 mi SSE 4.6 mph - N/A   Scattered Clouds
10:55 PM 70.0 °F - 63.7 °F 80% 30.00 in 10.0 mi SSE 4.6 mph - N/A   Clear
11:15 PM 69.1 °F - 63.3 °F 82% 30.00 in 10.0 mi SSE 4.6 mph - N/A   Clear
11:35 PM 68.2 °F - 63.1 °F 84% 30.00 in 10.0 mi SSE 4.6 mph - N/A   Clear